Regional Weather Roundup
Issued by NWS

Home | Current Version | Previous Version | Text Only | Print | Product List | Glossary On
Versions: 1 2 3 4 5 6 7 8 9 10 11 12 13 14 15 16 17 18 19 20 21 22 23 24 25 26 27 28 29 30 31 32 33 34 35 36 37 38 39 40 41 42 43 44 45 46 47 48 49 50
813
ASUS44 KJAN 181603
RWRMS

MISSISSIPPI HOURLY WEATHER ROUNDUP
NATIONAL WEATHER SERVICE JACKSON MS
1000 AM CST THU DEC 18 2014

NOTE: "FAIR: INDICATES FEW OR NO CLOUDS BELOW 12,000 FEET WITH NO
SIGNIFICANT WEATHER AND/OR OBSTRUCTIONS TO VISIBILITY.

MSZ001>002-007>008-010>013-018>021-025>028-034>036-181700-
NORTHWEST MISSISSIPPI

CITY           SKY/WX    TMP DP  RH WIND       PRES   REMARKS
CLARKSDALE     CLOUDY    41  39  93 CALM      30.27R
CLEVELAND      DRIZZLE   44  42  94 SE6       30.25R
GREENWOOD      CLOUDY    45  44  97 SE8       30.24R
GREENVILLE     CLOUDY    45  41  86 SE6       30.24R
GRENADA        CLOUDY    43  37  81 CALM      30.26R
OLIVE BRANCH   PTSUNNY   37  37 100 CALM      30.27R
OXFORD         CLOUDY    39  36  87 E3        30.26R
TUNICA         CLOUDY    41  36  81 CALM      30.28R
$$

MSZ003>006-009-014>017-022>024-029>033-037>039-181700-
NORTHEAST MISSISSIPPI

CITY           SKY/WX    TMP DP  RH WIND       PRES   REMARKS
COLUMBUS AFB   LGT RAIN  43  35  73 SW2       30.26S
CORINTH        CLOUDY    41  36  81 SE5       30.24S
GOLDN TRIANGLE CLOUDY    45  34  65 NW6       30.26R
STARKVILLE     DRIZZLE   43  36  75 SE3       30.24F
TUPELO         CLOUDY    42  36  79 E5        30.24F
$$

MSZ040-058-181700-
CENTRAL MISSISSIPPI

CITY           SKY/WX    TMP DP  RH WIND       PRES   REMARKS
JACKSON INTL   CLOUDY    49  40  71 NE8       30.23R
JACKSON HAWKNS LGT RAIN  47  40  76 VRB6      30.23R
MERIDIAN KEY   PTSUNNY   48  35  60 NE5       30.24R
MERIDIAN NAS   NOT AVBL
RAYMOND        PTSUNNY   46  41  81 E5        30.22F
VICKSBURG      CLOUDY    48  44  86 NE7       30.22F
$$

MSZ059>079-181700-
SOUTH MISSISSIPPI

CITY           SKY/WX    TMP DP  RH WIND       PRES   REMARKS
HATTIESBURG    PTSUNNY   51  40  65 SE8       30.23S
MCCOMB         CLOUDY    54  42  64 E7        30.19S
NATCHEZ        CLOUDY    52  43  71 NE7       30.19S
PINE BELT      MOSUNNY   50  37  62 SE5       30.23S
$$

MSZ080>082-181700-
COASTAL MISSISSIPPI

CITY           SKY/WX    TMP DP  RH WIND       PRES   REMARKS
BAY ST LOUIS   SUNNY     55  37  50 E7        30.22S
BILOXI         SUNNY     56  42  60 E7        30.22S
PASCAGOULA     SUNNY     56  40  55 E7        30.22F
GULFPORT       SUNNY     56  41  57 E8        30.21S
$$



USA.gov is the U.S. government's official web portal to all federal, state and local government web resources and services.